Regional Weather Roundup
Issued by NWS

Home | Current Version | Previous Version | Graphics & Text | Print | Product List | Glossary On
Versions: 1 2 3 4 5 6 7 8 9 10 11 12 13 14 15 16 17 18 19 20 21 22 23 24 25 26 27 28 29 30 31 32 33 34 35 36 37 38 39 40 41 42 43 44 45 46 47 48 49 50
000
ASUS43 KMPX 241610
RWRMN
WEATHER ROUNDUP FOR MINNESOTA
NATIONAL WEATHER SERVICE TWIN CITIES/CHANHASSEN MN
1100 AM CDT TUE APR 24 2018


NOTE: "FAIR" INDICATES FEW OR NO CLOUDS BELOW 12,000 FEET WITH NO
SIGNIFICANT WEATHER AND/OR OBSTRUCTIONS TO VISIBILITY. N/A MEANS
CURRENT SKY AND/OR WEATHER CONDITIONS ARE NOT AVAILABLE.

MNZ060>063-068>070-241700-
   Twin Cities Metro

CITY           SKY/WX    TMP DP  RH WIND       PRES   REMARKS
TWIN CITIES    PTSUNNY   62  39  42 N14       30.15R
ST PAUL        CLOUDY    57  38  48 N12       30.16R
CRYSTAL        FAIR      61  32  33 N17       30.16R
BLAINE         PTSUNNY   63  34  34 N13G21    30.16R
LAKEVILLE      FAIR      64  43  45 NW8       30.12S
EDEN PRAIRIE   CLOUDY    59  39  47 N12       30.15R
SOUTH ST PAUL  FAIR      59  37  44 N9        30.14R
LAKE ELMO      FAIR      55  39  54 NW9       30.16R
$$
MNZ001>005-007-008-013>017-022>024-027-028-241700-
   Northwest Minnesota

CITY           SKY/WX    TMP DP  RH WIND       PRES   REMARKS
BEMIDJI        FAIR      45  28  50 N12       30.30F
HALLOCK        FAIR      45  27  49 NW20      30.39S
ROSEAU         FAIR      43  32  65 NW14G21   30.34S
WARROAD        FAIR      39  27  60 NW21      30.34S
THIEF RVR FALL FAIR      44  29  55 NW20      30.36S
CROOKSTON      FAIR      46  34  61 N22       30.38S
FOSSTON        FAIR      45  30  57 N17       30.34S
DETROIT LAKES  FAIR      45  36  70 N12       30.32S
MOORHEAD       FAIR      46  36  66 N15G22    30.36R
PARK RAPIDS    FAIR      43  33  68 N8        30.29S
MAHNOMEN       FAIR      46  33  61 N15G23    30.33S
$$
MNZ006-009>011-018-025>026-241700-
   North Central Minnesota

CITY           SKY/WX    TMP DP  RH WIND       PRES   REMARKS
BAUDETTE       FAIR      39  26  59 N20G28    30.32R
FLAG ISLAND    FAIR      30  21  69 N20G25    30.35R WCI  18
INTL FALLS     FAIR      44  27  51 NW14      30.27S
WASKISH        FAIR      45  30  57 NW9       30.31S
BIG FORK       FAIR      48  28  46 NW6       30.27F
LONGVILLE      FAIR      41  36  81 N5        30.29S
GRAND RAPIDS   CLOUDY    42  32  67 NW10      30.29R
CRANE LAKE     FAIR      43  27  52 W7        30.26F
ORR            FAIR      46  25  42 NW13      30.23F
COOK           PTSUNNY   46  28  49 NW10      30.25F
WALKER         FAIR      43  30  60 N8G16     30.30S
$$
MNZ012-019>021-037-241700-
   Northeast Minnesota

CITY           SKY/WX    TMP DP  RH WIND       PRES   REMARKS
DULUTH         PTSUNNY   50  31  48 SE6       30.21S
ELY            FAIR      45  28  53 NW8       30.23S
HIBBING        CLOUDY    45  30  55 NW15      30.25R
EVELETH        FAIR      46  30  54 N5        30.25S
DULUTH HARBOR  FAIR      43  34  70 NE7       30.24S
TWO HARBORS    FAIR      55  36  47 E5        30.20S
SILVER BAY     FAIR      54  30  40 E7        30.19R
GRAND MARAIS     N/A     42  31  64 W7        30.21S
G MARAIS ARPRT PTSUNNY   43  25  49 NW6       30.19S
$$
MNZ029>031-032-039>041-046>048-054>057-064-241700-
   West Central Minnesota

CITY           SKY/WX    TMP DP  RH WIND       PRES   REMARKS
FERGUS FALLS   PTSUNNY   45  37  76 NE9       30.30S
WHEATON        CLOUDY    43  39  87 N9        30.35R
MORRIS         CLOUDY    46  39  76 N18G26    30.28R
ALEXANDRIA     CLOUDY    45  39  79 N12       30.28S
ELBOW LAKE     CLOUDY    41  38  89 E12       30.31R
WADENA         LGT RAIN  41  37  87 N9        30.30S
GLENWOOD       FAIR      45  39  81 N17G26    30.27R
APPLETON       CLOUDY    52  39  62 N23G31    30.27R
BENSON         CLOUDY    50  39  66 NE20G30   30.27R
ORTONVILLE     CLOUDY    46  39  76 N20G29    30.30R
WILLMAR        FAIR      52  36  54 N24G32    30.25R
$$
MNZ033>034-036-042>043-049>051-058-059-241700-
   Central Minnesota

CITY           SKY/WX    TMP DP  RH WIND       PRES   REMARKS
ST CLOUD       CLOUDY    49  34  56 N17G24    30.23R
SAUK CENTRE    LGT RAIN  46  38  75 N15G25    30.26R
PAYNESVILLE    FAIR      51  36  55 N16G28    30.24S
AITKIN         RAIN      43  36  75 NW7       30.26R
PINE RIVER     DRIZZLE   39  34  81 N7        30.32S
BRAINERD       LGT RAIN  44  36  73 N14       30.28R
STAPLES        DRIZZLE   43  39  87 N12       30.29S
LONG PRAIRIE   DRIZZLE   43  39  87 NW12G18   30.28R
LITTLE FALLS   CLOUDY    50  30  46 N8G17     30.26S
LITCHFIELD     FAIR      54  36  50 N20G26    30.22R
BUFFALO        CLOUDY    53  33  47 NW13G18   30.20R
MAPLE LAKE     PTSUNNY   50  37  59 N14G20    30.22R
HUTCHINSON     FAIR      54  39  57 N15G33    30.20R
$$
MNZ037-044-045-052-053-241700-
   East Central Minnesota

CITY           SKY/WX    TMP DP  RH WIND       PRES   REMARKS
PRINCETON      FAIR      52  34  50 N14       30.22R
MORA           FAIR      50  32  50 N7        30.24R
CAMBRIDGE      PTSUNNY   55  37  50 N9G16     30.20R
RUSH CITY      FAIR      56  33  41 N9        30.20R
MOOSE LAKE     FAIR      50  32  50 N6        30.21R
HINCKLEY       CLOUDY    54  32  43 N8        30.22R
CLOQUET        FAIR      52  27  37 W5        30.22S
MCGREGOR       CLOUDY    46  32  57 NW9       30.25S
$$
MNZ071>073-080-081-089-090-097-098-241700-
   Southwest Minnesota

CITY           SKY/WX    TMP DP  RH WIND       PRES   REMARKS
MONTEVIDEO     CLOUDY    50  37  62 NE23G31   30.25R
GRANITE FALLS  CLOUDY    52  39  60 N20       30.25R
CANBY          PTSUNNY   48  40  73 N14G22    30.29R
MARSHALL       LGT RAIN  49  40  71 N15       30.25R
REDWOOD FALLS  CLOUDY    53  38  56 N14G21    30.20R
OLIVIA         PTSUNNY   54  39  58 N24       30.20R
PIPESTONE      DRIZZLE  N/A N/A N/A NE20G26   30.21S
WINDOM         CLOUDY    52  32  46 NW15      30.20R
WORTHINGTON    CLOUDY    47  40  76 N18       30.21R
JACKSON        PTSUNNY   54  45  71 NW12      30.19R
TRACY          CLOUDY    50  42  75 N15       30.23R
SLAYTON        CLOUDY    46  41  84 N15       30.23R
$$
MNZ065>067-074>077-082>085-091>093-241700-
   South Central Minnesota

CITY           SKY/WX    TMP DP  RH WIND       PRES   REMARKS
MANKATO        FAIR      59  44  57 W10       30.16R
NEW ULM        CLOUDY    54  39  58 N13       30.18R
ST JAMES       PTSUNNY   54  46  76 NW13      30.19R
FAIRMONT       MOSUNNY   57  45  64 NW12      30.17S
GLENCOE        FAIR      55  39  55 N14       30.17S
OWATONNA       FAIR      64  45  48 W3        30.13S
WASECA         FAIR      63  45  51 NW7       30.16R
ALBERT LEA     FAIR      63  37  39 N7        30.14S
$$
MNZ078>079-086>088-094>096-241700-
   Southeast Minnesota

CITY           SKY/WX    TMP DP  RH WIND       PRES   REMARKS
ROCHESTER      FAIR      65  44  46 NW7       30.13S
RED WING       FAIR      64  32  29 SW5       30.11S
STANTON        FAIR      64  43  46 CALM      30.12S
DODGE CENTER   FAIR      63  39  42 N6        30.13S
WINONA         FAIR      63  36  36 NW3       30.09S
AUSTIN         FAIR      63  45  51 N8        30.13S
PRESTON        FAIR      64  36  35 N3        30.12S
$$
ABBREVIATIONS USED IN REMARKS
   TC - TEMPERATURES IN CELSIUS
  WCI - WIND CHILL INDEX
   HX - HEAT INDEX
  VSB - VISIBILITY
$$



USA.gov is the U.S. government's official web portal to all federal, state and local government web resources and services.